This is the latest recevied weather packets stored in our database for station/object JE0GNV-13. If no packets are shown the sender has not sent any weather packets the latest 1 day(s).
| Time | Temp. | Humidity | Pressure | Rain* | Wind** | Luminosity | Snow |
|---|---|---|---|---|---|---|---|
| 1777976402 | 13.33° C | 68% | 1017.5 hPa | 0 mm | 0 m/s | - | - |
| 1777975802 | 13.89° C | 67% | 1017.4 hPa | 0 mm | 0 m/s | - | - |
| 1777975200 | 14.44° C | 66% | 1017.2 hPa | 0 mm | 0 m/s | - | - |
| 1777974600 | 14.44° C | 65% | 1017 hPa | 0 mm | 0 m/s | - | - |
| 1777974002 | 15° C | 63% | 1016.9 hPa | 0 mm | 0 m/s | - | - |
| 1777973400 | 15.56° C | 63% | 1016.7 hPa | 0 mm | 0 m/s | - | - |
| 1777972801 | 15.56° C | 61% | 1016.6 hPa | 0 mm | 0 m/s | - | - |
| 1777972201 | 16.11° C | 60% | 1016.6 hPa | 0 mm | 0 m/s | - | - |
| 1777971601 | 16.67° C | 59% | 1016.4 hPa | 0 mm | 0 m/s | - | - |
| 1777971001 | 17.22° C | 57% | 1016.3 hPa | 0 mm | 0 m/s | - | - |
| 1777970400 | 17.78° C | 55% | 1016.3 hPa | 0 mm | 0 m/s | - | - |
| 1777969800 | 18.89° C | 53% | 1016.2 hPa | 0 mm | 0 m/s | - | - |
| 1777969202 | 19.44° C | 52% | 1016 hPa | 0 mm | 0 m/s | - | - |
| 1777968602 | 19.44° C | 51% | 1016 hPa | 0 mm | 0 m/s | - | - |
| 1777968002 | 19.44° C | 48% | 1015.9 hPa | 0 mm | 0 m/s | - | - |
| 1777967400 | 20° C | 45% | 1015.7 hPa | 0 mm | 0 m/s | - | - |
| 1777966800 | 20.56° C | 43% | 1015.7 hPa | 0 mm | 0 m/s | - | - |
| 1777966201 | 21.11° C | 40% | 1015.6 hPa | 0 mm | 0 m/s | - | - |
| 1777965600 | 21.11° C | 37% | 1015.4 hPa | 0 mm | 0 m/s | - | - |
| 1777965000 | 21.11° C | 34% | 1015.4 hPa | 0 mm | 0 m/s | - | - |
| 1777964401 | 21.11° C | 35% | 1015.3 hPa | 0 mm | 0 m/s | - | - |
| 1777963801 | 21.11° C | 34% | 1015.4 hPa | 0 mm | 0 m/s | - | - |
| 1777963200 | 21.11° C | 33% | 1015.4 hPa | 0 mm | 0 m/s | - | - |
| 1777962601 | 21.11° C | 32% | 1015.4 hPa | 0 mm | 0 m/s | - | - |
| 1777962001 | 21.11° C | 29% | 1015.4 hPa | 0 mm | 0 m/s | - | - |
* Rain latest hour (hover to see other rain measurements)
** Current wind speed in m/s (hover to see current wind gust speed)